RYR572J LIRP-EPWR

Flight info

Callsign RYR572J
Flight time N/A
Altitude 36000
Route GINAR DCT OSMOX DCT LOMED DCT TIPNI DCT MALUG/N0448F370 DCT NEMAL DCT MEDEL DCT APRAQ DCT LEGAZ DCT LAGAR DCT DINOV
Aircraft A320/M-SDE3FGHIRWY/LB1

Departure

Time 2026-05-08 16:57
Airport Pisa International Airport (LIRP)

Arrival

Time N/A
Airport Copernicus Wrocław Airport (EPWR)
Time Latitude Longitude Altitude Speed Heading
2026-05-08 16:36 43.69750 10.40033 11 ft 0 kts
2026-05-08 16:46 43.69749 10.40033 11 ft 2 kts
2026-05-08 16:46 43.69728 10.40027 12 ft 3 kts 13°
2026-05-08 16:46 43.69706 10.40019 11 ft 3 kts 24°
2026-05-08 16:46 43.69689 10.40004 12 ft 3 kts 63°
2026-05-08 16:47 43.69686 10.39990 16 ft 0 kts 99°
2026-05-08 16:49 43.69686 10.39992 12 ft 1 kts 99°
2026-05-08 16:50 43.69683 10.40012 11 ft 3 kts 99°
2026-05-08 16:50 43.69672 10.40045 12 ft 5 kts 136°
2026-05-08 16:50 43.69636 10.40057 11 ft 6 kts 171°
2026-05-08 16:50 43.69588 10.40067 11 ft 8 kts 172°
2026-05-08 16:51 43.69526 10.40079 11 ft 10 kts 172°
2026-05-08 16:51 43.69451 10.40093 13 ft 12 kts 172°
2026-05-08 16:51 43.69360 10.40102 11 ft 14 kts 193°
2026-05-08 16:51 43.69275 10.40022 11 ft 16 kts 217°
2026-05-08 16:52 43.69181 10.39924 11 ft 18 kts 217°
2026-05-08 16:52 43.69073 10.39810 9 ft 21 kts 218°
2026-05-08 16:52 43.68950 10.39681 8 ft 23 kts 217°
2026-05-08 16:52 43.68816 10.39538 7 ft 25 kts 218°
2026-05-08 16:53 43.68523 10.39237 9 ft 28 kts 216°
2026-05-08 16:53 43.68363 10.39074 8 ft 29 kts 217°
2026-05-08 16:53 43.68193 10.38899 7 ft 31 kts 217°
2026-05-08 16:54 43.68020 10.38721 7 ft 32 kts 217°
2026-05-08 16:54 43.67842 10.38535 9 ft 32 kts 216°
2026-05-08 16:54 43.67685 10.38374 9 ft 25 kts 217°
2026-05-08 16:54 43.67539 10.38225 10 ft 26 kts 216°
2026-05-08 16:55 43.67423 10.38122 11 ft 16 kts 190°
2026-05-08 16:55 43.67341 10.38215 11 ft 16 kts 126°
2026-05-08 16:55 43.67322 10.38339 11 ft 14 kts 57°
2026-05-08 16:55 43.67405 10.38415 11 ft 16 kts 37°
2026-05-08 16:56 43.67500 10.38514 10 ft 21 kts 37°
2026-05-08 16:56 43.67740 10.38763 9 ft 74 kts 37°
2026-05-08 16:56 43.68313 10.39357 9 ft 129 kts 37°
2026-05-08 16:56 43.69154 10.40225 21 ft 170 kts 36°
2026-05-08 16:57 43.70098 10.41212 568 ft 165 kts 35°
2026-05-08 16:57 43.70999 10.42151 1223 ft 160 kts 37°
2026-05-08 16:57 43.71876 10.43064 1840 ft 156 kts 38°
2026-05-08 16:57 43.72853 10.43624 2388 ft 155 kts
2026-05-08 16:58 43.73904 10.43349 2864 ft 156 kts 333°
2026-05-08 16:58 43.74728 10.42377 3265 ft 160 kts 303°
2026-05-08 16:58 43.75090 10.40865 3503 ft 177 kts 268°
2026-05-08 16:58 43.74737 10.39199 3809 ft 189 kts 233°
2026-05-08 16:59 43.73679 10.38065 4112 ft 203 kts 196°
2026-05-08 16:59 43.72232 10.38047 4401 ft 219 kts 167°
2026-05-08 16:59 43.70713 10.38445 4879 ft 229 kts 168°
2026-05-08 16:59 43.69143 10.38816 5648 ft 229 kts 168°
2026-05-08 17:00 43.67751 10.39771 6354 ft 227 kts 130°
2026-05-08 17:00 43.67094 10.41715 6947 ft 228 kts 99°
2026-05-08 17:00 43.66864 10.43943 7407 ft 244 kts 96°
2026-05-08 17:00 43.66683 10.46388 7731 ft 267 kts 95°
2026-05-08 17:01 43.66496 10.49036 8130 ft 286 kts 95°
2026-05-08 17:01 43.66297 10.51768 8996 ft 284 kts 96°
2026-05-08 17:01 43.66310 10.54493 9790 ft 287 kts 77°
2026-05-08 17:01 43.67104 10.57021 10449 ft 291 kts 53°
2026-05-08 17:02 43.68568 10.59054 10782 ft 309 kts 40°
2026-05-08 17:02 43.70254 10.61039 11046 ft 328 kts 40°
2026-05-08 17:02 43.72038 10.63138 11289 ft 346 kts 40°
2026-05-08 17:02 43.73917 10.65351 11587 ft 361 kts 40°
2026-05-08 17:03 43.75821 10.67607 12370 ft 359 kts 40°
2026-05-08 17:03 43.77701 10.69882 13076 ft 361 kts 41°
2026-05-08 17:03 43.79580 10.72211 13754 ft 364 kts 41°
2026-05-08 17:03 43.81475 10.74554 14327 ft 368 kts 41°
2026-05-08 17:04 43.83397 10.76924 14878 ft 371 kts 41°
2026-05-08 17:04 43.85336 10.79307 15459 ft 374 kts 40°
2026-05-08 17:04 43.87305 10.81697 16010 ft 378 kts 40°
2026-05-08 17:04 43.89306 10.84089 16562 ft 382 kts 39°
2026-05-08 17:05 43.91339 10.86495 17057 ft 387 kts 39°
2026-05-08 17:05 43.93402 10.88938 17540 ft 392 kts 39°
2026-05-08 17:05 43.95487 10.91417 18084 ft 397 kts 39°
2026-05-08 17:05 43.97586 10.93951 18605 ft 401 kts 39°
2026-05-08 17:06 43.99678 10.96525 19090 ft 405 kts 40°
2026-05-08 17:06 44.01762 10.99093 19633 ft 407 kts 38°
2026-05-08 17:06 44.04071 11.01380 20149 ft 408 kts 28°
2026-05-08 17:06 44.06556 11.03320 20668 ft 411 kts 27°
2026-05-08 17:07 44.09069 11.05252 21211 ft 414 kts 27°
2026-05-08 17:07 44.11604 11.07193 21727 ft 417 kts 27°
2026-05-08 17:07 44.14157 11.09152 22204 ft 421 kts 27°
2026-05-08 17:07 44.16735 11.11135 22694 ft 424 kts 27°
2026-05-08 17:08 44.19329 11.13133 23151 ft 427 kts 27°
2026-05-08 17:08 44.21938 11.15146 23599 ft 430 kts 27°
2026-05-08 17:08 44.24559 11.17175 23987 ft 433 kts 27°
2026-05-08 17:08 44.27193 11.19225 24349 ft 436 kts 27°
2026-05-08 17:09 44.29857 11.21290 24702 ft 438 kts 25°
2026-05-08 17:09 44.32644 11.22992 25053 ft 438 kts 18°
2026-05-08 17:09 44.35483 11.24543 25417 ft 440 kts 18°
2026-05-08 17:09 44.38353 11.26113 25693 ft 442 kts 18°
2026-05-08 17:10 44.41211 11.27682 26041 ft 444 kts 18°
2026-05-08 17:10 44.44109 11.29281 26392 ft 447 kts 18°
2026-05-08 17:10 44.47002 11.30881 26750 ft 448 kts 18°
2026-05-08 17:10 44.49909 11.32491 27076 ft 450 kts 18°
2026-05-08 17:11 44.52822 11.34105 27401 ft 453 kts 18°
2026-05-08 17:11 44.55769 11.35736 27715 ft 455 kts 18°
2026-05-08 17:11 44.58729 11.37372 28031 ft 458 kts 18°
2026-05-08 17:11 44.61702 11.39019 28353 ft 460 kts 18°
2026-05-08 17:12 44.64690 11.40677 28647 ft 464 kts 19°
2026-05-08 17:12 44.67707 11.42352 28910 ft 467 kts 19°
2026-05-08 17:12 44.70731 11.44037 29311 ft 468 kts 19°
2026-05-08 17:12 44.73751 11.45723 29761 ft 467 kts 19°
2026-05-08 17:13 44.76770 11.47408 30203 ft 466 kts 19°
2026-05-08 17:13 44.79782 11.49091 30591 ft 466 kts 18°
2026-05-08 17:13 44.82753 11.50753 30977 ft 465 kts 18°
2026-05-08 17:13 44.85804 11.52461 31335 ft 466 kts 18°
2026-05-08 17:14 44.88764 11.54121 31718 ft 465 kts 18°
2026-05-08 17:14 44.91762 11.55804 32145 ft 463 kts 17°
2026-05-08 17:14 44.94742 11.57477 32582 ft 461 kts 17°
2026-05-08 17:14 44.97715 11.59148 33023 ft 459 kts 17°
2026-05-08 17:15 45.00677 11.60814 33480 ft 457 kts 17°
2026-05-08 17:15 45.03628 11.62478 33908 ft 456 kts 17°
2026-05-08 17:15 45.06567 11.64138 34293 ft 454 kts 17°
2026-05-08 17:15 45.09499 11.65795 34614 ft 453 kts 17°
2026-05-08 17:16 45.12427 11.67454 34901 ft 453 kts 17°
2026-05-08 17:16 45.15360 11.69117 35179 ft 453 kts 17°
2026-05-08 17:16 45.18282 11.70776 35466 ft 453 kts 17°
2026-05-08 17:16 45.21205 11.72434 35714 ft 454 kts 17°
2026-05-08 17:17 45.24138 11.74096 35939 ft 454 kts 17°
2026-05-08 17:17 45.27069 11.75760 36050 ft 455 kts 17°
2026-05-08 17:17 45.32954 11.79109 36071 ft 455 kts 18°
2026-05-08 17:18 45.38823 11.82460 36065 ft 455 kts 18°
2026-05-08 17:18 45.44706 11.85820 36057 ft 456 kts 18°
2026-05-08 17:19 45.50586 11.89194 36059 ft 456 kts 18°
2026-05-08 17:19 45.56479 11.92579 36054 ft 456 kts 18°
2026-05-08 17:20 45.62370 11.95978 36057 ft 457 kts 19°
2026-05-08 17:20 45.68264 11.99380 36057 ft 457 kts 19°
2026-05-08 17:21 45.74157 12.02794 36063 ft 457 kts 19°
2026-05-08 17:21 45.80060 12.06215 36052 ft 458 kts 19°
2026-05-08 17:22 45.85969 12.09645 36046 ft 458 kts 19°
2026-05-08 17:22 45.91867 12.13078 36046 ft 458 kts 19°
2026-05-08 17:23 45.97739 12.16513 36049 ft 459 kts 19°
2026-05-08 17:23 46.03711 12.20015 36040 ft 460 kts 19°
2026-05-08 17:24 46.09592 12.23464 36042 ft 459 kts 19°
2026-05-08 17:24 46.15517 12.26941 36042 ft 460 kts 19°
2026-05-08 17:25 46.21437 12.30428 36043 ft 460 kts 19°
2026-05-08 17:25 46.27358 12.33933 36044 ft 460 kts 19°
2026-05-08 17:26 46.33284 12.37448 36041 ft 460 kts 20°
2026-05-08 17:26 46.39199 12.40962 36046 ft 460 kts 20°
2026-05-08 17:27 46.45116 12.44483 36057 ft 459 kts 20°
2026-05-08 17:27 46.51028 12.48003 36073 ft 460 kts 20°
2026-05-08 17:28 46.55954 12.50943 36070 ft 460 kts 20°
2026-05-08 17:28 46.61886 12.54496 36073 ft 461 kts 20°
2026-05-08 17:29 46.67812 12.58069 36077 ft 460 kts 20°
2026-05-08 17:29 46.73698 12.61780 36074 ft 462 kts 23°
2026-05-08 17:30 46.79463 12.65967 36068 ft 464 kts 25°
2026-05-08 17:30 46.86047 12.70948 36062 ft 464 kts 25°
2026-05-08 17:31 46.91796 12.75195 36354 ft 463 kts 24°
2026-05-08 17:31 46.93708 12.76587 36528 ft 463 kts 24°
2026-05-08 17:31 46.97560 12.79385 36854 ft 461 kts 24°
2026-05-08 17:32 46.99464 12.80770 36987 ft 461 kts 24°
2026-05-08 17:32 47.03326 12.83592 37067 ft 467 kts 24°
2026-05-08 17:32 47.08180 12.87160 37080 ft 472 kts 24°
2026-05-08 17:33 47.14074 12.91505 37065 ft 475 kts 24°
2026-05-08 17:33 47.19985 12.95875 37066 ft 476 kts 24°
2026-05-08 17:34 47.25894 13.00256 37074 ft 475 kts 24°
2026-05-08 17:34 47.31801 13.04650 37084 ft 475 kts 24°
2026-05-08 17:35 47.37706 13.09045 37086 ft 476 kts 24°
2026-05-08 17:35 47.43623 13.13458 37082 ft 476 kts 24°
2026-05-08 17:36 47.49541 13.17876 37084 ft 477 kts 24°
2026-05-08 17:36 47.55462 13.22306 37079 ft 477 kts 24°
2026-05-08 17:37 47.61371 13.26754 37075 ft 477 kts 25°
2026-05-08 17:37 47.67292 13.31224 37093 ft 478 kts 24°
2026-05-08 17:38 47.73220 13.35705 37081 ft 478 kts 25°
2026-05-08 17:38 47.79148 13.40200 37074 ft 479 kts 25°
2026-05-08 17:39 47.85093 13.44713 37073 ft 479 kts 25°
2026-05-08 17:39 47.91034 13.49235 37082 ft 479 kts 23°
2026-05-08 17:40 47.97173 13.53018 37079 ft 477 kts 18°
2026-05-08 17:40 48.03313 13.56649 37079 ft 478 kts 19°
2026-05-08 17:41 48.09493 13.60321 37081 ft 478 kts 19°
2026-05-08 17:41 48.15673 13.63998 37080 ft 478 kts 19°
2026-05-08 17:42 48.21914 13.67366 37079 ft 474 kts
2026-05-08 17:42 48.28360 13.69368 37092 ft 473 kts
2026-05-08 17:43 48.34813 13.71335 37088 ft 473 kts
2026-05-08 17:43 48.41265 13.73309 37086 ft 473 kts
2026-05-08 17:44 48.47719 13.75290 37088 ft 473 kts
2026-05-08 17:44 48.54172 13.77283 37096 ft 473 kts